Regional Weather Roundup
Issued by NWS

Home | Current Version | Previous Version | Graphics & Text | Print | Product List | Glossary On
Versions: 1 2 3 4 5 6 7 8 9 10 11 12 13 14 15 16 17 18 19 20 21 22 23 24 25 26 27 28 29 30 31 32 33 34 35 36 37 38 39 40 41 42 43 44 45 46 47 48 49 50
602
ASUS43 KMKX 041600
RWRWI

WISCONSIN REGIONAL WEATHER ROUNDUP
NATIONAL WEATHER SERVICE MILWAUKEE/SULLIVAN WI
1100 AM CDT WED MAY 04 2016

NOTE: "FAIR" INDICATES FEW OR NO CLOUDS BELOW 12,000 FEET WITH NO
SIGNIFICANT WEATHER AND/OR OBSTRUCTIONS TO VISIBILITY.

WIZ001-002-006>008-014>016-023>028-041700-
NORTHWEST WISCONSIN

CITY           SKY/WX    TMP DP  RH WIND       PRES   REMARKS
SUPERIOR ARPT  SUNNY     55  28  35 N14       29.97S
ASHLAND        SUNNY     51  35  54 NE14G22   29.97R
HAYWARD        SUNNY     53  24  32 N17G26    29.93S
SIREN          SUNNY     55  31  40 N16G25    29.96S
CUMBERLAND     PTSUNNY   50  32  50 N20       29.94S
RICE LAKE      PTSUNNY   52  31  44 NW14G23   29.95S
CHETEK         MOSUNNY   53  36  51 NW8G20    29.93F
LADYSMITH      SUNNY     52  29  41 N21       29.91S
EAU CLAIRE     NOT AVBL
MENOMONIE      MOSUNNY   56  34  42 NW21G32   29.93S
NEW RICHMOND   MOSUNNY   56  32  39 N17G28    29.97S
OSCEOLA        MOSUNNY   56  33  42 N13G25    29.99F
$$

WIZ003>005-009-010-017-018-041700-
NORTH CENTRAL WISCONSIN

CITY           SKY/WX    TMP DP  RH WIND       PRES   REMARKS
MANITOWISH WTR SUNNY     45  29  54 N12G21    29.89R
ARBOR VITAE    SUNNY     48  31  53 N13G23    29.88R
WOODRUFF       SUNNY     48  31  53 N13G23    29.88R
RHINELANDER    PTSUNNY   48  32  53 N12G17    29.88R
EAGLE RIVER    CLOUDY    41  31  67 N16G24    29.87R
LAND O LAKES   CLOUDY    40  32  73 N14G22    29.89R WCI  32
PHILLIPS       SUNNY     47  30  51 N14G20    29.88S
TOMAHAWK       SUNNY     48  29  48 N13G22    29.87R
MEDFORD        SUNNY     49  30  47 N16G25    29.86S
MERRILL        SUNNY     49  31  49 N17G23    29.86S
$$

WIZ029-030-035-036-043>047-041700-
CENTRAL WISCONSIN

CITY           SKY/WX    TMP DP  RH WIND       PRES   REMARKS
WAUSAU         SUNNY     53  27  36 N16G28    29.83S
MOSINEE        MOSUNNY   50  32  50 NW18G25   29.85F
MARSHFIELD     SUNNY     54  32  43 N16G26    29.85S
STEVENS POINT  MOSUNNY   48  32  54 N14G23    29.84S
WAUPACA        CLOUDY    51  34  52 NW13G18   29.83S
WAUTOMA        CLOUDY    51  35  54 N15G21    29.83S
WISC RAPIDS    SUNNY     54  31  41 N17G25    29.86S
CAMP DOUGLAS   NOT AVBL
$$

WIZ011>013-019>022-031-037>040-048>050-041700-
NORTHEAST WISCONSIN

CITY           SKY/WX    TMP DP  RH WIND       PRES   REMARKS
ANTIGO         MOSUNNY   46  33  61 N18       29.84R
SHAWANO        CLOUDY    48  35  60 N15G23    29.83S
OCONTO         CLOUDY    45  34  65 N13G20    29.81S
STURGEON BAY   CLOUDY    43  34  70 N20G26    29.82R
GREEN BAY      CLOUDY    47  35  63 N24G32    29.81R
MANITOWOC      NOT AVBL
APPLETON       CLOUDY    46  34  61 N18G28    29.80R
CLINTONVILLE   CLOUDY    48  34  57 N12       29.83S
OSHKOSH        CLOUDY    47  35  63 N20G28    29.81R
$$

WIZ032>034-041-042-053>061-041700-
SOUTHWEST WISCONSIN

CITY           SKY/WX    TMP DP  RH WIND       PRES   REMARKS
LA CROSSE      MOSUNNY   58  35  42 N21       29.90S
SPARTA         SUNNY     54  34  47 N17G28    29.89S
VIROQUA        MOSUNNY   52  34  50 N15G28    29.88S
BOSCOBEL       MOSUNNY   58  35  42 N14G23    29.87F
PRAIRIE DU CHI SUNNY     55  33  42 N17G23    29.89S
PLATTEVILLE    MOSUNNY   53  41  63 NW20G25   29.85S
$$

WIZ056-057-062-063-064-067-068-041700-
SOUTH CENTRAL WISCONSIN

CITY           SKY/WX    TMP DP  RH WIND       PRES   REMARKS
REEDSBURG      MOSUNNY   52  37  56 N16G22    29.84S
BARABOO/DELLS  MOSUNNY   52  34  51 N12G20    29.83F
LONE ROCK      NOT AVBL
MINERAL POINT  MOSUNNY   54  36  50 N17G28    29.84S
MADISON        PTSUNNY   51  38  60 N17G26    29.81S
MIDDLETON      CLOUDY    52  40  63 N15G23    29.82F
WATERTOWN      CLOUDY    46  37  71 N14G25    29.80R
MONROE         CLOUDY    50  36  57 N15G25    29.82R
JANESVILLE     CLOUDY    52  37  58 N16G22    29.80R
$$

WIZ051-052-058>065-066-070>072-041700-
SOUTHEAST WISCONSIN

CITY           SKY/WX    TMP DP  RH WIND       PRES   REMARKS
MILWAUKEE      CLOUDY    48  35  60 NW16G26   29.77R
WAUKESHA       CLOUDY    45  36  70 NW17G31   29.79R
MILWAUKEE/TIMM CLOUDY    46  34  61 N18G24    29.78R
RACINE         CLOUDY    48  35  60 N13       29.78R
BURLINGTON     CLOUDY    46  36  68 N17G24    29.78R
KENOSHA        CLOUDY    48  36  63 N14G25    29.77R
FOND DU LAC    CLOUDY    47  35  63 N21G26    29.81R
SHEBOYGAN      CLOUDY    47  36  65 N22G29    29.77R
WEST BEND      CLOUDY    45  34  65 N9G20     29.78R
JUNEAU         CLOUDY    45  35  70 NW18      29.81R
$$

LSZ147-162-041700-
LAKE SUPERIOR

STATION/POSITION TIME  TEMP    WIND        PRES    WAVE
                       AIR SEA DIR/SP/G            HT/PER
                 (UTC) (F)     (DEG/KT/KT) (MB)    (FT/S)
W MID LAKE BUOY  1450   39 37   40/  4/  6 1015.0R   1/ 3
DEVILS ISLAND    1500   40      50/  9/ 11 1015.9R
SAXON HARBOR     1540   41      30/ 12/ 14 1014.9R
$$

LMZ867-665-643>646-041700-
LAKE MICHIGAN

STATION/POSITION TIME  TEMP    WIND        PRES    WAVE
                       AIR SEA DIR/SP/G            HT/PER
                 (UTC) (F)     (DEG/KT/KT) (MB)    (FT/S)
CHAMBERS ISLAND  1500   42     340/ 17/ 22 1009.5
N MID LAKE BUOY  1450   39 38  330/ 21/ 23 1007.4R   4/ 5
NORTHPORT PIER   1502   41     350/ 16     1008.8S
ALGOMA LAKESHORE 1515           20/ 23/ 30   N/A
KEWAUNEE LAKESHO 1500   44     350/ 15/ 23 1007.8R
SHEBOYGAN LAKESH 1500   45      10/ 24/ 26 1008.4R
PORT WASHINGTON  1540   47     360/ 10/ 16 1008.8R
S MID LAKE BUOY  1450   41 40  350/ 23/ 27 1005.8R   6/ 6
KENOSHA   LAKESH 1500   46     330/ 18/ 22 1007.8R
$$

TC  - TEMPERATURE IN CELSIUS
VSB - VISIBILITY IN STATUTE MILES
WCI - WIND CHILL INDEX
HX  - HEAT INDEX





USA.gov is the U.S. government's official web portal to all federal, state and local government web resources and services.